Regional Weather Roundup
Issued by NWS Jackson, KY

Home | Current Version | Previous Version | Graphics & Text | Print | Product List | Glossary On
Versions: 1 2 3 4 5 6 7 8 9 10 11 12 13 14 15 16 17 18 19 20 21 22 23 24 25 26 27 28 29 30 31 32 33 34 35 36 37 38 39 40 41 42 43 44 45 46 47 48 49 50
000
ASUS43 KJKL 221510
RWRJKL

EAST KENTUCKY HOURLY WEATHER ROUNDUP
NATIONAL WEATHER SERVICE JACKSON KY
1100 AM EDT MON SEP 22 2014

NOTE: "FAIR" INDICATES FEW OR NO CLOUDS BELOW 12,000 FEET WITH
NO SIGNIFICANT WEATHER AND/OR OBSTRUCTIONS TO VISIBILITY.

* THESE REPORTS ARE NOT UNDER NWS QUALITY CONTROL AND MAY NOT
  REPORT WEATHER SUCH AS PRECIPITATION AND FOG.

KYZ079-080-083-085-087-088-110-112-115-119-120-221600
...EASTERN KENTUCKY...

CITY           SKY/WX    TMP DP  RH WIND       PRES   REMARKS
JACKSON        PTSUNNY   59  48  67 VRB3      30.21R
LONDON         SUNNY     61  48  62 VRB7      30.21R
SOMERSET*      MOSUNNY   61  48  63 N7        30.22R
MONTICELLO*    SUNNY     64  49  58 CALM      30.22R
WILLIAMSBURG*  SUNNY     59  48  67 CALM      30.20R
MIDDLESBORO*   MOSUNNY   62  49  61 NE5       30.20R
HARLAN APT*    SUNNY     59  45  58 MISG      30.19S
BLACK MTN*       N/A     48  46  93 NW2         N/A
PIKEVILLE APT* CLOUDY    55  50  82 CALM      30.20R
BIG SANDY*     CLOUDY    57  50  77 N3        30.20R
MOREHEAD APT*  CLOUDY    54  46  76 CALM      30.25R
$$

KYZ035-036-041-042-044-050-067-078-099-221600
...CENTRAL KENTUCKY...

CITY           SKY/WX    TMP DP  RH WIND       PRES   REMARKS
MT STERLING*   CLOUDY    54  46  76 NE5       30.25R
FLEMING/MASON* CLOUDY    54  46  76 NE3       30.24R
DANVILLE*      PTSUNNY   59  46  63 N9        30.24R
RICHMOND*      CLOUDY    57  45  62 N5        30.22R
LEXINGTON      PTSUNNY   57  46  66 NW8       30.23R
FRANKFORT      SUNNY     57  46  66 VRB6      30.22R
$$

KYZ091>093-OHZ055-061-077-WVZ005-015-034-035-042-221600
...SOUTHERN OHIO/WEST VIRGINIA...

CITY           SKY/WX    TMP DP  RH WIND       PRES   REMARKS
COVINGTON      MOSUNNY   55  43  62 N6        30.24R
COLUMBUS       CLOUDY    55  39  54 CALM      30.21R
DAYTON         PTSUNNY   54  40  59 N8        30.25R
WILMINGTON     CLOUDY    54  43  66 N8        30.22R
HUNTINGTON     CLOUDY    57  47  69 N8        30.20R
CHARLESTON     DRIZZLE   56  53  90 CALM      30.19R
PINEVILLE*     CLOUDY    59  52  78 MISG      30.23S
BECKLEY        CLOUDY    53  44  71 NW8       30.19R
BLUEFIELD      CLOUDY    55  46  71 W9        30.20R
$$

VAZ002-007-008-TNZ017-027-036-066-071-221600
...SOUTHWEST VIRGINIA/EAST TENNESSEE...

CITY           SKY/WX    TMP DP  RH WIND       PRES   REMARKS
WISE*          CLOUDY    55  45  67 N5        30.21R
JONESVILLE*    MOSUNNY   63  48  59 CALM      30.20S
ABINGDON*      MOSUNNY   60  47  63 NE5       30.18S
BRISTOL        MOSUNNY   63  48  58 N8        30.17S
KNOXVILLE      MOSUNNY   66  48  52 NE13      30.15R
OAK RIDGE      SUNNY     65  48  54 NE10G17   30.18R
CROSSVILLE     SUNNY     62  48  60 NE9       30.19R
NASHVILLE      SUNNY     68  49  50 N10       30.21R
$$

...KEY TO REMARKS...
VSB - VISIBILITY IN MILES
WCI - WIND CHILL INDEX
HX  - HEAT INDEX

$$


USA.gov is the U.S. government's official web portal to all federal, state and local government web resources and services.